Location: Enborne
(51.3833°N, 1.3667°W)
Time: 14:17:13
(UTC+00:00)

Cosmos 1844 Rocket - Pass Details

Date: 20 January 2021
Orbit: 826 x 843 km, 71.0° (Epoch: 05 March)

Event Time Altitude Azimuth Distance (km) Brightness Sun altitude
Rises 19:51:55 0° 228° (SW) 3,392 6.4 -30.2°
Reaches altitude 10° 19:54:27 10° 234° (SW) 2,460 5.7 -30.6°
Maximum altitude 19:59:54 48° 309° (NW) 1,099 3.5 -31.5°
Enters shadow 20:00:41 45° 333° (NNW) 1,144 3.5 -31.6°
